User: anonymous   Login
Location: G�rlitz
(51.1670°N, 15.0000°E)
Time: 19:30:57
(UTC+02:00)
Language:

DOVE 4 - Orbit

View from above orbital plane
View from above orbital plane
View from above satellite
View from above satellite

Ground track
Ground track

The orbit is defined by the following mean orbital elements,

1 39430U          26101.51593389 +.00000000 +00000-0 +18810-3 0 00006
2 39430  97.6542 306.1715 0127767 291.9815  66.7855 14.69225773    05
Epoch (UTC): 11 April 2026 12:22:56
Eccentricity: 0.0127767
inclination: 97.6542°
perigee height: 574 km
apogee height: 754 km
right ascension of ascending node: 306.1715°
argument of perigee: 291.9815°
revolutions per day: 14.69225773
mean anomaly at epoch: 66.7855°

The dashed part of the orbit path shows where the satellite is in the earth's shadow,  

DLR